Weather History for Aurora, IL

Change the Weather History Date:

Saturday, October 19, 2013

  Actual Average Record
Temperature  
Mean Temperature 47 °F 50 °F  
Max Temperature 55 °F 61 °F 77 °F (2000)
Min Temperature 39 °F 38 °F 27 °F (2002)
Degree Days  
Heating Degree Days 18 16  
Month to date heating degree days 164 243  
Since 1 July heating degree days 293 396  
Cooling Degree Days 0 0  
Month to date cooling degree days 14 9  
Year to date cooling degree days 745 656  
Moisture  
Dew Point 36 °F    
Average Humidity 65    
Maximum Humidity 89    
Minimum Humidity 41    
Precipitation  
Precipitation T in 0.09 in 0.13 in (2011)
Month to date precipitation 0.89 1.94  
Year to date precipitation 28.34 30.58  
Sea Level Pressure  
Sea Level Pressure 29.86 in    
Wind  
Wind Speed 9 mph (WSW)    
Max Wind Speed 23 mph    
Max Gust Speed 30 mph    
Visibility 10 miles    
Events Rain    
T = Trace of Precipitation, MM = Missing Value Source: NWS Daily Summary

Daily Weather History Graph

Daily Weather History Graph

Search for Another Location

Airport:

Trip Planner

Search our weather history database for the weather conditions in past years. The results will help you decide how hot, cold, wet, or windy it might be!

Date:

Astronomy

Oct. 19, 2013 Rise Set
Actual Time 7:11 AM CDT 6:05 PM CDT
Civil Twilight 6:42 AM CDT 6:34 PM CDT
Nautical Twilight 6:10 AM CDT 7:06 PM CDT
Astronomical Twilight 5:38 AM CDT 7:38 PM CDT
Moon 6:32 PM CDT (10/19) 7:49 AM CDT (10/19)
Length of Visible Light 11h 51m
Length of Day
10h 54m
Waxing Gibbous, 99% of the Moon is Illuminated
Oct 19
Waxing Gibbous
Oct 26
Last Quarter
Nov 3
New
Nov 9
First Quarter
Nov 17
Full

Hourly Weather History & Observations

Time (CDT) Temp. Windchill Dew Point Humidity Pressure Visibility Wind Dir Wind Speed Gust Speed Precip Events Conditions
12:52 AM 44.1 °F 41.5 °F 37.9 °F 79% 29.94 in 10.0 mi WSW 4.6 mph - N/A   Overcast
1:52 AM 41.0 °F 39.0 °F 37.0 °F 86% 29.92 in 10.0 mi West 3.5 mph - N/A   Overcast
2:52 AM 43.0 °F 40.3 °F 37.9 °F 82% 29.91 in 10.0 mi SW 4.6 mph - N/A   Overcast
3:52 AM 43.0 °F 38.2 °F 37.9 °F 82% 29.89 in 10.0 mi SW 8.1 mph - N/A   Overcast
4:52 AM 43.0 °F 38.2 °F 37.0 °F 80% 29.88 in 10.0 mi SW 8.1 mph - N/A   Mostly Cloudy
5:52 AM 41.0 °F 37.1 °F 37.0 °F 86% 29.88 in 10.0 mi WSW 5.8 mph - N/A   Mostly Cloudy
6:52 AM 41.0 °F 35.8 °F 36.0 °F 82% 29.89 in 10.0 mi WSW 8.1 mph - N/A   Overcast
7:52 AM 39.0 °F 34.0 °F 35.1 °F 86% 29.89 in 10.0 mi WSW 6.9 mph - N/A   Clear
8:52 AM 42.1 °F 36.6 °F 36.0 °F 79% 29.89 in 10.0 mi WSW 9.2 mph - N/A   Clear
9:52 AM 46.0 °F 41.4 °F 35.1 °F 66% 29.88 in 10.0 mi SW 9.2 mph - N/A   Clear
10:52 AM 48.9 °F - 36.0 °F 61% 29.86 in 10.0 mi SW 13.8 mph - N/A   Clear
11:52 AM 50.0 °F - 34.0 °F 54% 29.85 in 10.0 mi WSW 15.0 mph 25.3 mph N/A   Mostly Cloudy
12:52 PM 51.1 °F - 35.1 °F 54% 29.83 in 10.0 mi West 17.3 mph 25.3 mph 0.00 in   Scattered Clouds
1:52 PM 53.1 °F - 33.1 °F 47% 29.81 in 10.0 mi WSW 16.1 mph 24.2 mph N/A   Mostly Cloudy
2:52 PM 54.0 °F - 30.9 °F 41% 29.81 in 10.0 mi WSW 17.3 mph 27.6 mph N/A   Mostly Cloudy
3:52 PM 53.1 °F - 30.0 °F 41% 29.81 in 10.0 mi WSW 13.8 mph - N/A   Overcast
4:52 PM 51.1 °F - 33.1 °F 50% 29.82 in 10.0 mi WSW 12.7 mph 26.5 mph 0.00 in Rain Light Rain
5:52 PM 48.9 °F - 36.0 °F 61% 29.84 in 10.0 mi West 17.3 mph 23.0 mph 0.00 in Rain Light Rain
6:52 PM 46.0 °F 43.9 °F 39.0 °F 76% 29.85 in 10.0 mi West 4.6 mph - 0.00 in   Overcast
7:52 PM 43.0 °F 41.3 °F 39.0 °F 86% 29.86 in 10.0 mi SSW 3.5 mph - N/A   Scattered Clouds
8:52 PM 44.1 °F - 37.9 °F 79% 29.85 in 10.0 mi Calm Calm - N/A   Overcast
9:52 PM 43.0 °F 40.3 °F 37.9 °F 82% 29.85 in 10.0 mi NW 4.6 mph - N/A   Mostly Cloudy
10:52 PM 44.1 °F 41.5 °F 37.9 °F 79% 29.85 in 10.0 mi WSW 4.6 mph - N/A   Overcast
11:52 PM 43.0 °F 39.5 °F 37.9 °F 82% 29.85 in 10.0 mi South 5.8 mph - N/A   Overcast